Weather History for Bishop, CA

Change the Weather History Date:

Wednesday, June 19, 2013

  Actual Average Record
Temperature  
Mean Temperature 73 °F 72 °F  
Max Temperature 89 °F 93 °F 106 °F (1961)
Min Temperature 57 °F 52 °F 36 °F (1995)
Degree Days  
Heating Degree Days 0 0  
Month to date heating degree days 0 17  
Since 1 June heating degree days 0 17  
Since 1 July heating degree days 3851 4175  
Cooling Degree Days 8 8  
Month to date cooling degree days 195 112  
Year to date cooling degree days 281 180  
Since 1 June cooling degree days 195 112  
Growing Degree Days 22 (Base 50)    
Moisture  
Dew Point -2 °F    
Average Humidity 10    
Maximum Humidity 19    
Minimum Humidity 1    
Precipitation  
Precipitation 0.00 in 0.00 in 0.68 in (1982)
Month to date precipitation T 0.13  
Year to date precipitation 0.47 3.01  
Snow  
Snow 0.00 in 0.00 in - ()
Month to date snowfall 0.0 0.0  
Since 1 June snowfall 0.0 0.0  
Since 1 July snowfall 2.8 6.8  
Snow Depth 0.00 in    
Sea Level Pressure  
Sea Level Pressure 29.71 in    
Wind  
Wind Speed 10 mph (NNW)    
Max Wind Speed 20 mph    
Max Gust Speed 29 mph    
Visibility 10 miles    
Events      
T = Trace of Precipitation, MM = Missing Value Source: NWS Daily Summary

Daily Weather History Graph

Daily Weather History Graph

Search for Another Location

Airport:

Trip Planner

Search our weather history database for the weather conditions in past years. The results will help you decide how hot, cold, wet, or windy it might be!

Date:

Astronomy

Jun. 19, 2013 Rise Set
Actual Time 5:32 AM PDT 8:17 PM PDT
Civil Twilight 5:01 AM PDT 8:48 PM PDT
Nautical Twilight 4:22 AM PDT 9:27 PM PDT
Astronomical Twilight 3:38 AM PDT 10:11 PM PDT
Moon 4:18 PM PDT (6/19) 2:16 AM PDT (6/19)
Length of Visible Light 15h 46m
Length of Day
14h 44m
Waxing Gibbous, 81% of the Moon is Illuminated
Jun 19
Waxing Gibbous
Jun 23
Full
Jun 29
Last Quarter
Jul 8
New
Jul 15
First Quarter

Hourly Weather History & Observations

Time (PDT) Temp. Dew Point Humidity Pressure Visibility Wind Dir Wind Speed Gust Speed Precip Events Conditions
12:56 AM 64.0 °F 17.1 °F 16% 29.65 in 10.0 mi NNW 8.1 mph 18.4 mph N/A   Clear
1:56 AM 61.0 °F 17.1 °F 18% 29.66 in 10.0 mi NNW 12.7 mph - N/A   Clear
2:56 AM 57.9 °F 16.0 °F 19% 29.66 in 10.0 mi NNE 12.7 mph - N/A   Clear
3:56 AM 59.0 °F 14.0 °F 17% 29.68 in 10.0 mi NNE 8.1 mph - N/A   Clear
4:56 AM 59.0 °F 10.9 °F 15% 29.69 in 10.0 mi North 11.5 mph - N/A   Clear
5:56 AM 57.9 °F 14.0 °F 18% 29.72 in 10.0 mi NNE 11.5 mph - N/A   Clear
6:56 AM 62.1 °F 12.0 °F 14% 29.73 in 10.0 mi NW 5.8 mph - N/A   Clear
7:56 AM 66.9 °F 15.1 °F 14% 29.73 in 10.0 mi West 10.4 mph - N/A   Clear
8:56 AM 75.0 °F -14.1 °F 4% 29.73 in 10.0 mi North 11.5 mph - N/A   Clear
9:56 AM 78.1 °F -15.0 °F 4% 29.73 in 10.0 mi Variable 6.9 mph - N/A   Clear
10:56 AM 82.0 °F -18.9 °F 4% 29.73 in 10.0 mi North 9.2 mph - N/A   Clear
11:56 AM 81.0 °F -27.9 °F 4% 29.73 in 10.0 mi West 8.1 mph - N/A   Clear
12:56 PM 84.0 °F -24.0 °F 4% 29.72 in 10.0 mi Variable 4.6 mph - N/A   Clear
1:56 PM 86.0 °F -18.9 °F 4% 29.70 in 10.0 mi NNE 6.9 mph - N/A   Clear
2:56 PM 84.0 °F -29.9 °F 4% 29.70 in 10.0 mi South 4.6 mph - N/A   Clear
3:56 PM 87.1 °F -15.0 °F 4% 29.68 in 10.0 mi NE 8.1 mph 18.4 mph N/A   Clear
4:56 PM 88.0 °F -20.9 °F 4% 29.67 in 10.0 mi WNW 13.8 mph 18.4 mph N/A   Clear
5:42 PM 86.0 °F -7.6 °F 4% 29.82 in 10.0 mi NNW 12.7 mph 23.0 mph N/A   Clear
5:56 PM 86.0 °F -2.9 °F 4% 29.68 in 10.0 mi NW 9.2 mph 16.1 mph N/A   Clear
6:56 PM 82.9 °F -2.9 °F 4% 29.69 in 10.0 mi North 15.0 mph 20.7 mph N/A   Clear
7:56 PM 77.0 °F 3.0 °F 6% 29.71 in 10.0 mi NNW 16.1 mph - N/A   Clear
8:56 PM 70.0 °F 7.0 °F 9% 29.72 in 10.0 mi North 13.8 mph - N/A   Clear
9:56 PM 69.1 °F 7.0 °F 9% 29.74 in 10.0 mi North 10.4 mph 20.7 mph N/A   Clear
10:56 PM 66.0 °F 8.1 °F 10% 29.74 in 10.0 mi North 13.8 mph - N/A   Clear
11:56 PM 63.0 °F 12.0 °F 14% 29.78 in 10.0 mi NNW 6.9 mph - N/A   Clear